This demonstration page uses our WeatherBlox Daily Observations layout. Learn more.

Hourly Observations for August 1, 2020

Temp ( °F °C ) Dew Point ( °F °C ) Humidity (%) Winds ( mph kmh ) Pressure ( in mb ) Visibility ( mi km ) Precip ( " mm )
12:15 am 00:15 Mostly Cloudy 68 20 68 20 100 100 Calm 29.9 1013 10 16.0934 0 0
12:35 am 00:35 Partly Cloudy 68 20 68 20 100 100 Calm 29.91 1013 7 11.26538 0 0
12:55 am 00:55 Clear 66 19 66 19 100 100 Calm 29.91 1013 7 11.26538 0 0
1:15 am 01:15 Clear 64 18 64 18 100 100 Calm 29.91 1013 7 11.26538 0 0
1:35 am 01:35 Mostly Cloudy 66 19 66 19 100 100 Calm 29.91 1013 7 11.26538 0 0
1:55 am 01:55 Cloudy 66 19 66 19 100 100 Calm 29.9 1013 10 16.0934 0 0
2:15 am 02:15 Mostly Cloudy 64 18 64 18 100 100 Calm 29.9 1013 10 16.0934 0 0
2:35 am 02:35 Cloudy 64 18 64 18 100 100 Calm 29.9 1013 7 11.26538 0 0
2:55 am 02:55 Cloudy 64 18 64 18 100 100 Calm 29.9 1013 7 11.26538 0 0
3:15 am 03:15 Cloudy 64 18 64 18 100 100 Calm 29.89 1012 5 8.0467 0 0
3:35 am 03:35 Mostly Cloudy 64 18 64 18 100 100 Calm 29.89 1012 7 11.26538 0 0
3:55 am 03:55 Partly Cloudy 64 18 64 18 100 100 NE 5 7 29.88 1012 5 8.0467 0 0
4:15 am 04:15 Clear 64 18 64 18 100 100 NNE 3 6 29.88 1012 5 8.0467 0 0
4:35 am 04:35 Partly Cloudy 64 18 64 18 100 100 Calm 29.88 1012 5 8.0467 0 0
4:55 am 04:55 Mostly Cloudy 63 17 63 17 100 100 Calm 29.9 1012 3 4.82802 0 0
5:15 am 05:15 Partly Cloudy 63 17 63 17 100 100 Calm 29.91 1013 3 4.82802 0 0
5:35 am 05:35 Clear 63 17 63 17 100 100 Calm 29.91 1013 5 8.0467 0 0
5:55 am 05:55 Clear 63 17 63 17 100 100 Calm 29.92 1013 5 8.0467 0 0
6:15 am 06:15 Sunny 63 17 63 17 100 100 Calm 29.92 1013 4 6.43736 0 0
6:35 am 06:35 Sunny 63 17 63 17 100 100 Calm 29.93 1013 4 6.43736 0 0
6:55 am 06:55 Mostly Cloudy 63 17 63 17 100 100 Calm 29.94 1014 4 6.43736 0 0
7:15 am 07:15 Cloudy 63 17 63 17 100 100 Calm 29.95 1014 0.75 1.207005 0 0
7:35 am 07:35 Cloudy 63 17 63 17 100 100 Calm 29.95 1014 1 1.60934 0 0
7:55 am 07:55 Cloudy 63 17 63 17 100 100 Calm 29.96 1014 1 1.60934 0 0
8:15 am 08:15 Cloudy 63 17 63 17 100 100 Calm 29.97 1015 2 3.21868 0 0
8:35 am 08:35 Cloudy 63 17 63 17 100 100 Calm 29.98 1015 3 4.82802 0 0
8:55 am 08:55 Cloudy 63 17 63 17 100 100 Calm 29.98 1015 4 6.43736 0 0
9:15 am 09:15 Cloudy 64 18 64 18 100 100 Calm 29.97 1015 5 8.0467 0 0
9:35 am 09:35 Cloudy 64 18 64 18 100 100 Calm 29.97 1015 5 8.0467 0 0
9:55 am 09:55 Cloudy 68 20 66 19 94 94 Calm 29.97 1015 10 16.0934 0 0
10:15 am 10:15 Cloudy 68 20 66 19 94 94 ENE 3 6 29.97 1015 10 16.0934 0 0
10:35 am 10:35 Cloudy 70 21 68 20 94 94 ESE 5 7 29.98 1015 10 16.0934 0 0
10:55 am 10:55 Cloudy 72 22 68 20 88 88 Calm 29.99 1016 10 16.0934 0 0
11:15 am 11:15 Cloudy 72 22 68 20 88 88 Calm 29.99 1016 10 16.0934 0 0
11:35 am 11:35 Mostly Cloudy 72 22 68 20 88 88 NE 3 6 29.99 1016 10 16.0934 0 0
11:55 am 11:55 Mostly Cloudy 73 23 68 20 83 83 Calm 29.99 1015 10 16.0934 0 0
12:15 pm 12:15 Cloudy 77 25 68 20 74 74 Calm 29.98 1015 10 16.0934 0 0
12:35 pm 12:35 Cloudy 77 25 68 20 74 74 S 6 9 29.96 1015 10 16.0934 0 0
12:55 pm 12:55 Mostly Cloudy 79 26 68 20 70 70 SSW 6 9 29.96 1015 10 16.0934 0 0
1:15 pm 13:15 Cloudy 81 27 68 20 66 66 SE 5 7 29.95 1014 10 16.0934 0 0
1:35 pm 13:35 Mostly Cloudy 81 27 68 20 66 66 SSE 8 13 29.94 1014 10 16.0934 0 0
1:55 pm 13:55 Mostly Cloudy 81 27 68 20 66 66 S 9 15 29.94 1014 10 16.0934 0 0
2:15 pm 14:15 Cloudy 81 27 70 21 70 70 S 6 9 29.94 1014 10 16.0934 0 0
2:35 pm 14:35 Cloudy 81 27 70 21 70 70 SSW 8 13 29.93 1014 10 16.0934 0 0
2:55 pm 14:55 Cloudy 81 27 70 21 70 70 S 6 9 29.93 1014 10 16.0934 0 0
3:15 pm 15:15 Mostly Cloudy 82 28 70 21 66 66 SSE 10 17 29.92 1013 10 16.0934 0 0
3:35 pm 15:35 Mostly Cloudy 82 28 70 21 66 66 SE 7 11 29.91 1013 10 16.0934 0 0
3:55 pm 15:55 Cloudy 82 28 70 21 66 66 S 7 11 29.9 1013 10 16.0934 0 0
4:15 pm 16:15 Cloudy 82 28 72 22 70 70 S 8 13 29.89 1012 10 16.0934 0 0
4:55 pm 16:55 Mostly Cloudy 84 29 72 22 66 66 S 7 11 29.88 1012 10 16.0934 0 0
5:15 pm 17:15 Mostly Cloudy 84 29 72 22 66 66 S 9 15 29.88 1012 10 16.0934 0 0
5:35 pm 17:35 Mostly Cloudy 84 29 72 22 66 66 S 8 13 29.88 1012 10 16.0934 0 0
5:55 pm 17:55 Cloudy 84 29 72 22 66 66 SSE 8 13 29.88 1012 10 16.0934 0 0
6:15 pm 18:15 Mostly Cloudy 82 28 72 22 70 70 SSE 9 15 29.89 1012 10 16.0934 0 0
6:35 pm 18:35 Cloudy 84 29 72 22 66 66 S 12 19 29.89 1012 10 16.0934 0 0
6:55 pm 18:55 Mostly Cloudy 82 28 72 22 70 70 S 9 15 29.89 1012 10 16.0934 0 0
7:15 pm 19:15 Cloudy 82 28 72 22 70 70 S 12 19 29.9 1013 10 16.0934 0 0
7:35 pm 19:35 Cloudy 82 28 73 23 74 74 SSE 6 9 29.9 1013 10 16.0934 0 0
7:55 pm 19:55 Mostly Cloudy 82 28 73 23 74 74 SSE 8 13 29.9 1013 10 16.0934 0 0
8:15 pm 20:15 Partly Cloudy 81 27 73 23 79 79 SSE 8 13 29.91 1013 10 16.0934 0 0
8:35 pm 20:35 Partly Cloudy 81 27 73 23 79 79 S 12 19 29.91 1013 10 16.0934 0 0
8:55 pm 20:55 Partly Cloudy 81 27 73 23 79 79 SSE 6 9 29.91 1013 10 16.0934 0 0
9:15 pm 21:15 Clear 81 27 73 23 79 79 S 10 17 29.91 1013 10 16.0934 0 0
9:35 pm 21:35 Mostly Cloudy 81 27 73 23 79 79 SSE 8 13 29.92 1013 10 16.0934 0 0
9:55 pm 21:55 Mostly Cloudy 79 26 73 23 84 84 SSE 9 15 29.92 1013 10 16.0934 0 0
10:15 pm 22:15 Mostly Cloudy 79 26 73 23 84 84 SSE 8 13 29.91 1013 10 16.0934 0 0
10:35 pm 22:35 Partly Cloudy 79 26 73 23 84 84 S 8 13 29.91 1013 10 16.0934 0 0
10:55 pm 22:55 Partly Cloudy 77 25 73 23 89 89 S 9 15 29.91 1013 10 16.0934 0 0
11:15 pm 23:15 Partly Cloudy 77 25 73 23 89 89 S 3 6 29.9 1013 10 16.0934 0 0
11:35 pm 23:35 Clear 75 24 73 23 94 94 S 6 9 29.9 1012 10 16.0934 0 0
11:55 pm 23:55 Partly Cloudy 77 25 73 23 89 89 SSE 5 7 29.89 1012 10 16.0934 0 0

Powered by AerisWeather